| time (UTC) | temp C | wind direction | speed KPH | gust KPH | rain 1hr cm | rain 24hr cm | rain mn cm | humidity % | barometer mb |
| 20260502234554 | 16 | 11 | 3.2 | 19.3 | 0.00 | 0.00 | 0.00 | 36 | 1011.4 |
| 20260502233052 | 16 | 43 | 11.3 | 19.3 | 0.00 | 0.00 | 0.00 | 37 | 1011.5 |
| 20260502231614 | 16 | 9 | 11.3 | 22.5 | 0.00 | 0.00 | 0.00 | 37 | 1011.8 |
| 20260502230051 | 16 | 30 | 19.3 | 27.4 | 0.00 | 0.00 | 0.00 | 36 | 1011.8 |
| 20260502224557 | 16 | 10 | 9.7 | 22.5 | 0.00 | 0.00 | 0.00 | 36 | 1011.8 |
| 20260502223048 | 16 | 50 | 12.9 | 24.1 | 0.00 | 0.00 | 0.00 | 34 | 1012.0 |
| 20260502221552 | 16 | 41 | 6.4 | 16.1 | 0.00 | 0.00 | 0.00 | 34 | 1012.2 |
| 20260502220049 | 16 | 5 | 14.5 | 19.3 | 0.00 | 0.00 | 0.00 | 34 | 1012.4 |
| 20260502214547 | 16 | 350 | 14.5 | 25.7 | 0.00 | 0.00 | 0.00 | 34 | 1012.5 |
| 20260502213041 | 16 | 24 | 11.3 | 24.1 | 0.00 | 0.00 | 0.00 | 32 | 1012.8 |
| 20260502211541 | 17 | 23 | 11.3 | 24.1 | 0.00 | 0.00 | 0.00 | 33 | 1012.8 |
| 20260502210040 | 17 | 24 | 12.9 | 25.7 | 0.00 | 0.00 | 0.00 | 33 | 1012.9 |
| 20260502204536 | 16 | 27 | 11.3 | 22.5 | 0.00 | 0.00 | 0.00 | 33 | 1013.2 |
| 20260502203035 | 15 | 16 | 12.9 | 25.7 | 0.00 | 0.00 | 0.00 | 35 | 1013.4 |
| 20260502201535 | 16 | 7 | 16.1 | 29.0 | 0.00 | 0.00 | 0.00 | 36 | 1013.4 |
| 20260502200032 | 15 | 22 | 16.1 | 24.1 | 0.00 | 0.00 | 0.00 | 39 | 1013.6 |
| 20260502194534 | 16 | 345 | 16.1 | 30.6 | 0.00 | 0.00 | 0.00 | 35 | 1013.6 |
| 20260502193030 | 16 | 13 | 17.7 | 27.4 | 0.00 | 0.00 | 0.00 | 35 | 1013.8 |
| 20260502191531 | 16 | 64 | 19.3 | 25.7 | 0.00 | 0.00 | 0.00 | 34 | 1013.9 |
| 20260502190028 | 15 | 61 | 6.4 | 16.1 | 0.00 | 0.00 | 0.00 | 33 | 1014.1 |
| 20260502184523 | 15 | 119 | 4.8 | 19.3 | 0.00 | 0.00 | 0.00 | 34 | 1014.3 |
| 20260502183022 | 15 | 79 | 9.7 | 19.3 | 0.00 | 0.00 | 0.00 | 34 | 1014.6 |
| 20260502181518 | 14 | 54 | 11.3 | 20.9 | 0.00 | 0.00 | 0.00 | 38 | 1014.6 |
| 20260502163003 | 12 | 34 | 14.5 | 20.9 | 0.00 | 0.00 | 0.00 | 42 | 1015.2 |
| 20260502161500 | 12 | 13 | 14.5 | 22.5 | 0.00 | 0.00 | 0.00 | 42 | 1015.4 |
| 20260502160132 | 12 | 11 | 14.5 | 24.1 | 0.00 | 0.00 | 0.00 | 41 | 1015.5 |
| 20260502151554 | 11 | 37 | 11.3 | 20.9 | 0.00 | 0.00 | 0.00 | 40 | 1016.0 |
| 20260502123107 | 4 | 345 | 20.9 | 30.6 | 0.00 | 0.00 | 0.00 | 53 | 1016.0 |
| 20260502121531 | 4 | 345 | 25.7 | 33.8 | 0.00 | 0.00 | 0.00 | 53 | 1015.8 |
| 20260502114528 | 4 | 345 | 20.9 | 30.6 | 0.00 | 0.00 | 0.00 | 52 | 1016.0 |
| 20260502113027 | 4 | 345 | 19.3 | 27.4 | 0.00 | 0.00 | 0.00 | 53 | 1016.0 |
| 20260502111530 | 4 | 345 | 20.9 | 30.6 | 0.00 | 0.00 | 0.00 | 53 | 1016.1 |
| 20260502110025 | 4 | 345 | 22.5 | 30.6 | 0.00 | 0.00 | 0.00 | 53 | 1016.0 |
| 20260502104521 | 4 | 345 | 24.1 | 32.2 | 0.00 | 0.00 | 0.00 | 52 | 1015.8 |
| 20260502103022 | 4 | 345 | 19.3 | 29.0 | 0.00 | 0.00 | 0.00 | 53 | 1015.9 |
| 20260502101516 | 5 | 345 | 24.1 | 33.8 | 0.00 | 0.00 | 0.00 | 51 | 1015.8 |
| 20260502091508 | 6 | 345 | 6.4 | 9.7 | 0.00 | 0.00 | 0.00 | 47 | 1015.8 |
| 20260502070057 | 6 | 254 | 17.7 | 22.5 | 0.00 | 0.00 | 0.00 | 50 | 1016.1 |
| 20260502064553 | 6 | 231 | 20.9 | 27.4 | 0.00 | 0.00 | 0.00 | 48 | 1016.0 |
| 20260502063058 | 6 | 220 | 22.5 | 27.4 | 0.00 | 0.00 | 0.00 | 48 | 1015.8 |
| 20260502061547 | 7 | 214 | 25.7 | 32.2 | 0.00 | 0.00 | 0.00 | 46 | 1015.7 |
| 20260502060045 | 7 | 216 | 25.7 | 32.2 | 0.00 | 0.00 | 0.00 | 45 | 1015.6 |
| 20260502054544 | 7 | 345 | 19.3 | 24.1 | 0.00 | 0.00 | 0.00 | 46 | 1015.7 |
| 20260502053044 | 8 | 203 | 14.5 | 19.3 | 0.00 | 0.00 | 0.00 | 46 | 1015.8 |
| 20260502051542 | 8 | 216 | 19.3 | 27.4 | 0.00 | 0.00 | 0.00 | 45 | 1015.8 |
| 20260502050042 | 8 | 210 | 20.9 | 27.4 | 0.00 | 0.00 | 0.00 | 44 | 1015.7 |
| 20260502044544 | 9 | 210 | 19.3 | 25.7 | 0.00 | 0.00 | 0.00 | 43 | 1015.8 |
| 20260502043046 | 10 | 208 | 19.3 | 25.7 | 0.00 | 0.00 | 0.00 | 41 | 1015.8 |
| 20260502041546 | 10 | 208 | 14.5 | 24.1 | 0.00 | 0.00 | 0.00 | 40 | 1015.9 |
| 20260502040040 | 10 | 208 | 11.3 | 14.5 | 0.00 | 0.00 | 0.00 | 39 | 1015.9 |
| 20260502034540 | 11 | 217 | 11.3 | 14.5 | 0.00 | 0.00 | 0.00 | 38 | 1015.8 |
| 20260502033045 | 10 | 229 | 8.0 | 14.5 | 0.00 | 0.00 | 0.00 | 36 | 1015.7 |
| 20260502031538 | 11 | 345 | 6.4 | 9.7 | 0.00 | 0.00 | 0.00 | 35 | 1015.6 |
| 20260502030038 | 11 | 345 | 1.6 | 9.7 | 0.00 | 0.00 | 0.00 | 35 | 1015.4 |
| 20260502024545 | 12 | 345 | 11.3 | 16.1 | 0.00 | 0.00 | 0.00 | 34 | 1015.0 |
| 20260502023037 | 13 | 221 | 9.7 | 14.5 | 0.00 | 0.00 | 0.00 | 32 | 1014.8 |
| 20260502021536 | 15 | 206 | 6.4 | 9.7 | 0.00 | 0.00 | 0.00 | 28 | 1014.7 |
| 20260502020036 | 16 | 197 | 8.0 | 12.9 | 0.00 | 0.00 | 0.00 | 25 | 1014.8 |
| 20260502014536 | 17 | 220 | 8.0 | 16.1 | 0.00 | 0.00 | 0.00 | 23 | 1014.8 |
| 20260502013034 | 18 | 297 | 3.2 | 8.0 | 0.00 | 0.00 | 0.00 | 22 | 1014.8 |
| 20260502011533 | 18 | 277 | 6.4 | 9.7 | 0.00 | 0.00 | 0.00 | 20 | 1014.9 |
| 20260502010046 | 18 | 285 | 8.0 | 16.1 | 0.00 | 0.00 | 0.00 | 16 | 1015.0 |
| 20260502004547 | 18 | 302 | 9.7 | 25.7 | 0.00 | 0.00 | 0.00 | 15 | 1015.2 |
| 20260502003028 | 18 | 277 | 4.8 | 20.9 | 0.00 | 0.00 | 0.00 | 15 | 1015.2 |
| 20260502001532 | 18 | 138 | 1.6 | 14.5 | 0.00 | 0.00 | 0.00 | 15 | 1015.2 |